Location: Les Salelles
(44.4192°N, 4.1044°E)
Time: 19:22:34
(UTC+00:00)

Cosmos 1703 - Pass Details

Date: 20 January 2021
Orbit: 524 x 538 km, 82.5° (Epoch: 28 February)

Event Time Altitude Azimuth Distance (km) Brightness Sun altitude
Rises 19:00:39 0° 199° (SSW) 2,653 7.1 -25.4°
Reaches altitude 10° 19:02:50 10° 205° (SSW) 1,767 6.2 -25.8°
Enters shadow 19:06:10 47° 257° (WSW) 706 4.2 -26.4°
